#datetime,building,power
2022-02-12T00:00:00,mcc,40.16
2022-02-12T00:01:00,mcc,40.17
2022-02-12T00:02:00,mcc,42.78
2022-02-12T00:03:00,mcc,43.45
2022-02-12T00:04:00,mcc,42.55
2022-02-12T00:05:00,mcc,44.71
2022-02-12T00:06:00,mcc,41.88
2022-02-12T00:07:00,mcc,40.48
2022-02-12T00:08:00,mcc,40.20
2022-02-12T00:09:00,mcc,38.64
2022-02-12T00:10:00,mcc,39.74
2022-02-12T00:11:00,mcc,39.84
2022-02-12T00:12:00,mcc,40.17
2022-02-12T00:13:00,mcc,39.63
2022-02-12T00:14:00,mcc,40.05
2022-02-12T00:15:00,mcc,40.67
2022-02-12T00:16:00,mcc,40.58
2022-02-12T00:17:00,mcc,48.02
2022-02-12T00:18:00,mcc,37.86
2022-02-12T00:19:00,mcc,37.70
2022-02-12T00:20:00,mcc,38.52
2022-02-12T00:21:00,mcc,38.82
2022-02-12T00:22:00,mcc,38.37
2022-02-12T00:23:00,mcc,36.99
2022-02-12T00:24:00,mcc,34.14
2022-02-12T00:25:00,mcc,37.42
2022-02-12T00:26:00,mcc,38.61
2022-02-12T00:27:00,mcc,37.89
2022-02-12T00:28:00,mcc,39.07
2022-02-12T00:29:00,mcc,38.90
2022-02-12T00:30:00,mcc,41.74
2022-02-12T00:31:00,mcc,43.99
2022-02-12T00:32:00,mcc,40.34
2022-02-12T00:33:00,mcc,41.22
2022-02-12T00:34:00,mcc,43.43
2022-02-12T00:35:00,mcc,51.30
2022-02-12T00:36:00,mcc,40.94
2022-02-12T00:37:00,mcc,40.35
2022-02-12T00:38:00,mcc,40.38
2022-02-12T00:39:00,mcc,40.88
2022-02-12T00:40:00,mcc,39.11
2022-02-12T00:41:00,mcc,38.23
2022-02-12T00:42:00,mcc,39.59
2022-02-12T00:43:00,mcc,36.54
2022-02-12T00:44:00,mcc,38.08
2022-02-12T00:45:00,mcc,38.71
2022-02-12T00:46:00,mcc,39.45
2022-02-12T00:47:00,mcc,38.81
2022-02-12T00:48:00,mcc,39.87
2022-02-12T00:49:00,mcc,39.23
2022-02-12T00:50:00,mcc,38.58
2022-02-12T00:51:00,mcc,39.90
2022-02-12T00:52:00,mcc,37.37
2022-02-12T00:53:00,mcc,38.30
2022-02-12T00:54:00,mcc,43.20
2022-02-12T00:55:00,mcc,42.05
2022-02-12T00:56:00,mcc,40.98
2022-02-12T00:57:00,mcc,42.70
2022-02-12T00:58:00,mcc,38.05
2022-02-12T00:59:00,mcc,36.50
2022-02-12T01:00:00,mcc,36.40
2022-02-12T01:01:00,mcc,38.02
2022-02-12T01:02:00,mcc,39.45
2022-02-12T01:03:00,mcc,39.30
2022-02-12T01:04:00,mcc,39.03
2022-02-12T01:05:00,mcc,39.68
2022-02-12T01:06:00,mcc,37.78
2022-02-12T01:07:00,mcc,38.12
2022-02-12T01:08:00,mcc,38.82
2022-02-12T01:09:00,mcc,36.62
2022-02-12T01:10:00,mcc,38.59
2022-02-12T01:11:00,mcc,41.02
2022-02-12T01:12:00,mcc,44.33
2022-02-12T01:13:00,mcc,37.27
2022-02-12T01:14:00,mcc,40.46
2022-02-12T01:15:00,mcc,37.56
2022-02-12T01:16:00,mcc,37.37
2022-02-12T01:17:00,mcc,41.51
2022-02-12T01:18:00,mcc,39.57
2022-02-12T01:19:00,mcc,40.98
2022-02-12T01:20:00,mcc,39.59
2022-02-12T01:21:00,mcc,39.45
2022-02-12T01:22:00,mcc,37.39
2022-02-12T01:23:00,mcc,37.64
2022-02-12T01:24:00,mcc,37.64
2022-02-12T01:25:00,mcc,41.43
2022-02-12T01:26:00,mcc,39.82
2022-02-12T01:27:00,mcc,40.93
2022-02-12T01:28:00,mcc,41.97
2022-02-12T01:29:00,mcc,39.04
2022-02-12T01:30:00,mcc,37.94
2022-02-12T01:31:00,mcc,40.14
2022-02-12T01:32:00,mcc,38.59
2022-02-12T01:33:00,mcc,38.98
2022-02-12T01:34:00,mcc,40.99
2022-02-12T01:35:00,mcc,38.82
2022-02-12T01:36:00,mcc,38.32
2022-02-12T01:37:00,mcc,41.85
2022-02-12T01:38:00,mcc,39.91
2022-02-12T01:39:00,mcc,39.34
2022-02-12T01:40:00,mcc,41.12
2022-02-12T01:41:00,mcc,41.15
2022-02-12T01:42:00,mcc,43.40
2022-02-12T01:43:00,mcc,41.28
2022-02-12T01:44:00,mcc,38.42
2022-02-12T01:45:00,mcc,39.01
2022-02-12T01:46:00,mcc,36.79
2022-02-12T01:47:00,mcc,37.71
2022-02-12T01:48:00,mcc,37.96
2022-02-12T01:49:00,mcc,45.26
2022-02-12T01:50:00,mcc,37.46
2022-02-12T01:51:00,mcc,40.12
2022-02-12T01:52:00,mcc,37.35
2022-02-12T01:53:00,mcc,37.85
2022-02-12T01:54:00,mcc,40.47
2022-02-12T01:55:00,mcc,39.10
2022-02-12T01:56:00,mcc,37.44
2022-02-12T01:57:00,mcc,40.44
2022-02-12T01:58:00,mcc,37.05
2022-02-12T01:59:00,mcc,37.42
2022-02-12T02:00:00,mcc,38.16
2022-02-12T02:01:00,mcc,42.83
2022-02-12T02:02:00,mcc,39.15
2022-02-12T02:03:00,mcc,40.77
2022-02-12T02:04:00,mcc,42.56
2022-02-12T02:05:00,mcc,46.57
2022-02-12T02:06:00,mcc,43.31
2022-02-12T02:07:00,mcc,48.81
2022-02-12T02:08:00,mcc,39.61
2022-02-12T02:09:00,mcc,39.81
2022-02-12T02:10:00,mcc,38.95
2022-02-12T02:11:00,mcc,43.39
2022-02-12T02:12:00,mcc,37.97
2022-02-12T02:13:00,mcc,39.13
2022-02-12T02:14:00,mcc,42.05
2022-02-12T02:15:00,mcc,38.60
2022-02-12T02:16:00,mcc,38.26
2022-02-12T02:17:00,mcc,40.68
2022-02-12T02:18:00,mcc,39.70
2022-02-12T02:19:00,mcc,37.87
2022-02-12T02:20:00,mcc,40.70
2022-02-12T02:21:00,mcc,39.61
2022-02-12T02:22:00,mcc,39.12
2022-02-12T02:23:00,mcc,39.92
2022-02-12T02:24:00,mcc,39.96
2022-02-12T02:25:00,mcc,50.69
2022-02-12T02:26:00,mcc,43.63
2022-02-12T02:27:00,mcc,41.70
2022-02-12T02:28:00,mcc,44.19
2022-02-12T02:29:00,mcc,44.04
2022-02-12T02:30:00,mcc,44.52
2022-02-12T02:31:00,mcc,47.27
2022-02-12T02:32:00,mcc,43.72
2022-02-12T02:33:00,mcc,39.55
2022-02-12T02:34:00,mcc,42.63
2022-02-12T02:35:00,mcc,41.31
2022-02-12T02:36:00,mcc,39.73
2022-02-12T02:37:00,mcc,40.38
2022-02-12T02:38:00,mcc,40.02
2022-02-12T02:39:00,mcc,39.91
2022-02-12T02:40:00,mcc,38.16
2022-02-12T02:41:00,mcc,37.36
2022-02-12T02:42:00,mcc,40.08
2022-02-12T02:43:00,mcc,45.14
2022-02-12T02:44:00,mcc,38.12
2022-02-12T02:45:00,mcc,40.92
2022-02-12T02:46:00,mcc,40.65
2022-02-12T02:47:00,mcc,41.42
2022-02-12T02:48:00,mcc,43.67
2022-02-12T02:49:00,mcc,43.45
2022-02-12T02:50:00,mcc,43.35
2022-02-12T02:51:00,mcc,53.06
2022-02-12T02:52:00,mcc,53.37
2022-02-12T02:53:00,mcc,52.33
2022-02-12T02:54:00,mcc,60.32
2022-02-12T02:55:00,mcc,50.16
2022-02-12T02:56:00,mcc,50.58
2022-02-12T02:57:00,mcc,51.19
2022-02-12T02:58:00,mcc,47.58
2022-02-12T02:59:00,mcc,47.29
2022-02-12T03:00:00,mcc,48.69
2022-02-12T03:01:00,mcc,57.44
2022-02-12T03:02:00,mcc,48.56
2022-02-12T03:03:00,mcc,49.40
2022-02-12T03:04:00,mcc,48.65
2022-02-12T03:05:00,mcc,48.01
2022-02-12T03:06:00,mcc,46.67
2022-02-12T03:07:00,mcc,47.92
2022-02-12T03:08:00,mcc,49.84
2022-02-12T03:09:00,mcc,48.84
2022-02-12T03:10:00,mcc,48.81
2022-02-12T03:11:00,mcc,51.10
2022-02-12T03:12:00,mcc,51.13
2022-02-12T03:13:00,mcc,44.93
2022-02-12T03:14:00,mcc,46.17
2022-02-12T03:15:00,mcc,43.32
2022-02-12T03:16:00,mcc,42.72
2022-02-12T03:17:00,mcc,44.29
2022-02-12T03:18:00,mcc,43.69
2022-02-12T03:19:00,mcc,52.72
2022-02-12T03:20:00,mcc,45.69
2022-02-12T03:21:00,mcc,42.39
2022-02-12T03:22:00,mcc,41.34
2022-02-12T03:23:00,mcc,44.12
2022-02-12T03:24:00,mcc,40.60
2022-02-12T03:25:00,mcc,40.23
2022-02-12T03:26:00,mcc,39.38
2022-02-12T03:27:00,mcc,46.86
2022-02-12T03:28:00,mcc,46.14
2022-02-12T03:29:00,mcc,47.73
2022-02-12T03:30:00,mcc,47.82
2022-02-12T03:31:00,mcc,50.31
2022-02-12T03:32:00,mcc,42.87
2022-02-12T03:33:00,mcc,41.88
2022-02-12T03:34:00,mcc,43.95
2022-02-12T03:35:00,mcc,41.36
2022-02-12T03:36:00,mcc,42.87
2022-02-12T03:37:00,mcc,42.65
2022-02-12T03:38:00,mcc,42.44
2022-02-12T03:39:00,mcc,42.59
2022-02-12T03:40:00,mcc,43.72
2022-02-12T03:41:00,mcc,40.12
2022-02-12T03:42:00,mcc,40.02
2022-02-12T03:43:00,mcc,42.35
2022-02-12T03:44:00,mcc,40.94
2022-02-12T03:45:00,mcc,40.69
2022-02-12T03:46:00,mcc,37.26
2022-02-12T03:47:00,mcc,38.19
2022-02-12T03:48:00,mcc,38.26
2022-02-12T03:49:00,mcc,36.51
2022-02-12T03:50:00,mcc,37.02
2022-02-12T03:51:00,mcc,36.89
2022-02-12T03:52:00,mcc,37.41
2022-02-12T03:53:00,mcc,37.97
2022-02-12T03:54:00,mcc,36.83
2022-02-12T03:55:00,mcc,47.37
2022-02-12T03:56:00,mcc,38.57
2022-02-12T03:57:00,mcc,39.49
2022-02-12T03:58:00,mcc,36.36
2022-02-12T03:59:00,mcc,35.42
2022-02-12T04:00:00,mcc,37.79
2022-02-12T04:01:00,mcc,37.39
2022-02-12T04:02:00,mcc,39.83
2022-02-12T04:03:00,mcc,43.41
2022-02-12T04:04:00,mcc,40.68
2022-02-12T04:05:00,mcc,38.67
2022-02-12T04:06:00,mcc,40.21
2022-02-12T04:07:00,mcc,37.92
2022-02-12T04:08:00,mcc,39.91
2022-02-12T04:09:00,mcc,39.34
2022-02-12T04:10:00,mcc,38.93
2022-02-12T04:11:00,mcc,38.26
2022-02-12T04:12:00,mcc,36.77
2022-02-12T04:13:00,mcc,44.24
2022-02-12T04:14:00,mcc,39.27
2022-02-12T04:15:00,mcc,36.12
2022-02-12T04:16:00,mcc,36.95
2022-02-12T04:17:00,mcc,42.08
2022-02-12T04:18:00,mcc,40.33
2022-02-12T04:19:00,mcc,39.81
2022-02-12T04:20:00,mcc,39.45
2022-02-12T04:21:00,mcc,39.23
2022-02-12T04:22:00,mcc,37.65
2022-02-12T04:23:00,mcc,38.31
2022-02-12T04:24:00,mcc,37.64
2022-02-12T04:25:00,mcc,37.94
2022-02-12T04:26:00,mcc,43.62
2022-02-12T04:27:00,mcc,40.41
2022-02-12T04:28:00,mcc,40.27
2022-02-12T04:29:00,mcc,41.58
2022-02-12T04:30:00,mcc,39.33
2022-02-12T04:31:00,mcc,37.95
2022-02-12T04:32:00,mcc,42.54
2022-02-12T04:33:00,mcc,37.82
2022-02-12T04:34:00,mcc,39.31
2022-02-12T04:35:00,mcc,35.58
2022-02-12T04:36:00,mcc,36.80
2022-02-12T04:37:00,mcc,36.81
2022-02-12T04:38:00,mcc,36.85
2022-02-12T04:39:00,mcc,36.68
2022-02-12T04:40:00,mcc,41.53
2022-02-12T04:41:00,mcc,38.91
2022-02-12T04:42:00,mcc,38.74
2022-02-12T04:43:00,mcc,39.37
2022-02-12T04:44:00,mcc,37.17
2022-02-12T04:45:00,mcc,35.49
2022-02-12T04:46:00,mcc,39.21
2022-02-12T04:47:00,mcc,40.34
2022-02-12T04:48:00,mcc,40.37
2022-02-12T04:49:00,mcc,41.77
2022-02-12T04:50:00,mcc,37.98
2022-02-12T04:51:00,mcc,39.26
2022-02-12T04:52:00,mcc,42.37
2022-02-12T04:53:00,mcc,39.53
2022-02-12T04:54:00,mcc,39.24
2022-02-12T04:55:00,mcc,40.52
2022-02-12T04:56:00,mcc,40.13
2022-02-12T04:57:00,mcc,38.19
2022-02-12T04:58:00,mcc,42.20
2022-02-12T04:59:00,mcc,37.87
2022-02-12T05:00:00,mcc,39.35
2022-02-12T05:01:00,mcc,38.59
2022-02-12T05:02:00,mcc,38.23
2022-02-12T05:03:00,mcc,40.18
2022-02-12T05:04:00,mcc,41.26
2022-02-12T05:05:00,mcc,40.72
2022-02-12T05:06:00,mcc,42.33
2022-02-12T05:07:00,mcc,37.60
2022-02-12T05:08:00,mcc,47.57
2022-02-12T05:09:00,mcc,42.65
2022-02-12T05:10:00,mcc,40.93
2022-02-12T05:11:00,mcc,40.99
2022-02-12T05:12:00,mcc,41.60
2022-02-12T05:13:00,mcc,37.88
2022-02-12T05:14:00,mcc,39.73
2022-02-12T05:15:00,mcc,40.57
2022-02-12T05:16:00,mcc,39.07
2022-02-12T05:17:00,mcc,39.06
2022-02-12T05:18:00,mcc,39.45
2022-02-12T05:19:00,mcc,40.91
2022-02-12T05:20:00,mcc,39.96
2022-02-12T05:21:00,mcc,39.34
2022-02-12T05:22:00,mcc,38.30
2022-02-12T05:23:00,mcc,37.75
2022-02-12T05:24:00,mcc,39.63
2022-02-12T05:25:00,mcc,37.93
2022-02-12T05:26:00,mcc,47.07
2022-02-12T05:27:00,mcc,39.89
2022-02-12T05:28:00,mcc,38.67
2022-02-12T05:29:00,mcc,38.61
2022-02-12T05:30:00,mcc,37.55
2022-02-12T05:31:00,mcc,36.51
2022-02-12T05:32:00,mcc,37.38
2022-02-12T05:33:00,mcc,38.30
2022-02-12T05:34:00,mcc,38.26
2022-02-12T05:35:00,mcc,40.10
2022-02-12T05:36:00,mcc,38.68
2022-02-12T05:37:00,mcc,45.41
2022-02-12T05:38:00,mcc,51.42
2022-02-12T05:39:00,mcc,42.74
2022-02-12T05:40:00,mcc,39.02
2022-02-12T05:41:00,mcc,38.96
2022-02-12T05:42:00,mcc,38.32
2022-02-12T05:43:00,mcc,40.21
2022-02-12T05:44:00,mcc,40.54
2022-02-12T05:45:00,mcc,37.99
2022-02-12T05:46:00,mcc,36.50
2022-02-12T05:47:00,mcc,37.97
2022-02-12T05:48:00,mcc,38.77
2022-02-12T05:49:00,mcc,37.81
2022-02-12T05:50:00,mcc,36.17
2022-02-12T05:51:00,mcc,38.03
2022-02-12T05:52:00,mcc,40.66
2022-02-12T05:53:00,mcc,42.00
2022-02-12T05:54:00,mcc,39.02
2022-02-12T05:55:00,mcc,38.09
2022-02-12T05:56:00,mcc,38.06
2022-02-12T05:57:00,mcc,38.17
2022-02-12T05:58:00,mcc,37.90
2022-02-12T05:59:00,mcc,38.81
2022-02-12T06:00:00,mcc,37.44
2022-02-12T06:01:00,mcc,41.69
2022-02-12T06:02:00,mcc,39.41
2022-02-12T06:03:00,mcc,38.55
2022-02-12T06:04:00,mcc,41.35
2022-02-12T06:05:00,mcc,37.64
2022-02-12T06:06:00,mcc,36.69
2022-02-12T06:07:00,mcc,41.72
2022-02-12T06:08:00,mcc,37.32
2022-02-12T06:09:00,mcc,37.16
2022-02-12T06:10:00,mcc,38.54
2022-02-12T06:11:00,mcc,37.22
2022-02-12T06:12:00,mcc,37.20
2022-02-12T06:13:00,mcc,36.45
2022-02-12T06:14:00,mcc,37.58
2022-02-12T06:15:00,mcc,38.50
2022-02-12T06:16:00,mcc,39.00
2022-02-12T06:17:00,mcc,39.68
2022-02-12T06:18:00,mcc,40.34
2022-02-12T06:19:00,mcc,37.88
2022-02-12T06:20:00,mcc,37.89
2022-02-12T06:21:00,mcc,39.28
2022-02-12T06:22:00,mcc,37.10
2022-02-12T06:23:00,mcc,39.74
2022-02-12T06:24:00,mcc,39.55
2022-02-12T06:25:00,mcc,39.73
2022-02-12T06:26:00,mcc,41.82
2022-02-12T06:27:00,mcc,42.73
2022-02-12T06:28:00,mcc,40.88
2022-02-12T06:29:00,mcc,39.95
2022-02-12T06:30:00,mcc,41.45
2022-02-12T06:31:00,mcc,40.98
2022-02-12T06:32:00,mcc,41.39
2022-02-12T06:33:00,mcc,42.99
2022-02-12T06:34:00,mcc,39.77
2022-02-12T06:35:00,mcc,38.89
2022-02-12T06:36:00,mcc,38.98
2022-02-12T06:37:00,mcc,37.70
2022-02-12T06:38:00,mcc,37.61
2022-02-12T06:39:00,mcc,46.02
2022-02-12T06:40:00,mcc,39.03
2022-02-12T06:41:00,mcc,42.83
2022-02-12T06:42:00,mcc,38.88
2022-02-12T06:43:00,mcc,38.20
2022-02-12T06:44:00,mcc,40.65
2022-02-12T06:45:00,mcc,39.88
2022-02-12T06:46:00,mcc,39.29
2022-02-12T06:47:00,mcc,42.54
2022-02-12T06:48:00,mcc,41.59
2022-02-12T06:49:00,mcc,40.37
2022-02-12T06:50:00,mcc,40.68
2022-02-12T06:51:00,mcc,49.27
2022-02-12T06:52:00,mcc,52.48
2022-02-12T06:53:00,mcc,53.58
2022-02-12T06:54:00,mcc,51.36
2022-02-12T06:55:00,mcc,40.69
2022-02-12T06:56:00,mcc,44.38
2022-02-12T06:57:00,mcc,38.22
2022-02-12T06:58:00,mcc,47.65
2022-02-12T06:59:00,mcc,37.08
2022-02-12T07:00:00,mcc,36.41
2022-02-12T07:01:00,mcc,34.61
2022-02-12T07:02:00,mcc,34.25
2022-02-12T07:03:00,mcc,35.36
2022-02-12T07:04:00,mcc,39.69
2022-02-12T07:05:00,mcc,39.33
2022-02-12T07:06:00,mcc,38.15
2022-02-12T07:07:00,mcc,39.60
2022-02-12T07:08:00,mcc,36.74
2022-02-12T07:09:00,mcc,35.88
2022-02-12T07:10:00,mcc,38.83
2022-02-12T07:11:00,mcc,37.38
2022-02-12T07:12:00,mcc,36.22
2022-02-12T07:13:00,mcc,37.72
2022-02-12T07:14:00,mcc,36.23
2022-02-12T07:15:00,mcc,38.44
2022-02-12T07:16:00,mcc,38.93
2022-02-12T07:17:00,mcc,38.48
2022-02-12T07:18:00,mcc,42.25
2022-02-12T07:19:00,mcc,41.73
2022-02-12T07:20:00,mcc,36.93
2022-02-12T07:21:00,mcc,36.53
2022-02-12T07:22:00,mcc,35.44
2022-02-12T07:23:00,mcc,37.43
2022-02-12T07:24:00,mcc,37.97
2022-02-12T07:25:00,mcc,33.29
2022-02-12T07:26:00,mcc,34.13
2022-02-12T07:27:00,mcc,37.77
2022-02-12T07:28:00,mcc,35.25
2022-02-12T07:29:00,mcc,36.08
2022-02-12T07:30:00,mcc,38.34
2022-02-12T07:31:00,mcc,42.38
2022-02-12T07:32:00,mcc,42.22
2022-02-12T07:33:00,mcc,43.08
2022-02-12T07:34:00,mcc,49.81
2022-02-12T07:35:00,mcc,35.06
2022-02-12T07:36:00,mcc,34.73
2022-02-12T07:37:00,mcc,34.36
2022-02-12T07:38:00,mcc,37.59
2022-02-12T07:39:00,mcc,40.81
2022-02-12T07:40:00,mcc,40.83
2022-02-12T07:41:00,mcc,41.66
2022-02-12T07:42:00,mcc,41.81
2022-02-12T07:43:00,mcc,38.68
2022-02-12T07:44:00,mcc,40.52
2022-02-12T07:45:00,mcc,36.37
2022-02-12T07:46:00,mcc,37.56
2022-02-12T07:47:00,mcc,38.82
2022-02-12T07:48:00,mcc,36.86
2022-02-12T07:49:00,mcc,35.79
2022-02-12T07:50:00,mcc,37.02
2022-02-12T07:51:00,mcc,37.05
2022-02-12T07:52:00,mcc,45.07
2022-02-12T07:53:00,mcc,36.20
2022-02-12T07:54:00,mcc,36.07
2022-02-12T07:55:00,mcc,36.76
2022-02-12T07:56:00,mcc,36.20
2022-02-12T07:57:00,mcc,36.30
2022-02-12T07:58:00,mcc,39.55
2022-02-12T07:59:00,mcc,36.83
2022-02-12T08:00:00,mcc,36.09
2022-02-12T08:01:00,mcc,36.93
2022-02-12T08:02:00,mcc,38.20
2022-02-12T08:03:00,mcc,39.68
2022-02-12T08:04:00,mcc,39.90
2022-02-12T08:05:00,mcc,39.27
2022-02-12T08:06:00,mcc,40.08
2022-02-12T08:07:00,mcc,39.38
2022-02-12T08:08:00,mcc,35.71
2022-02-12T08:09:00,mcc,36.81
2022-02-12T08:10:00,mcc,39.60
2022-02-12T08:11:00,mcc,37.89
2022-02-12T08:12:00,mcc,36.19
2022-02-12T08:13:00,mcc,39.75
2022-02-12T08:14:00,mcc,37.27
2022-02-12T08:15:00,mcc,38.99
2022-02-12T08:16:00,mcc,38.94
2022-02-12T08:17:00,mcc,37.51
2022-02-12T08:18:00,mcc,38.63
2022-02-12T08:19:00,mcc,38.75
2022-02-12T08:20:00,mcc,37.09
2022-02-12T08:21:00,mcc,40.39
2022-02-12T08:22:00,mcc,37.54
2022-02-12T08:23:00,mcc,39.59
2022-02-12T08:24:00,mcc,39.40
2022-02-12T08:25:00,mcc,37.99
2022-02-12T08:26:00,mcc,40.31
2022-02-12T08:27:00,mcc,41.17
2022-02-12T08:28:00,mcc,40.78
2022-02-12T08:29:00,mcc,43.65
2022-02-12T08:30:00,mcc,40.65
2022-02-12T08:31:00,mcc,40.16
2022-02-12T08:32:00,mcc,39.18
2022-02-12T08:33:00,mcc,41.12
2022-02-12T08:34:00,mcc,37.67
2022-02-12T08:35:00,mcc,38.62
2022-02-12T08:36:00,mcc,36.73
2022-02-12T08:37:00,mcc,37.04
2022-02-12T08:38:00,mcc,36.63
2022-02-12T08:39:00,mcc,36.36
2022-02-12T08:40:00,mcc,36.61
2022-02-12T08:41:00,mcc,38.11
2022-02-12T08:42:00,mcc,35.84
2022-02-12T08:43:00,mcc,36.90
2022-02-12T08:44:00,mcc,39.51
2022-02-12T08:45:00,mcc,36.90
2022-02-12T08:46:00,mcc,44.63
2022-02-12T08:47:00,mcc,38.54
2022-02-12T08:48:00,mcc,37.49
2022-02-12T08:49:00,mcc,38.13
2022-02-12T08:50:00,mcc,42.24
2022-02-12T08:51:00,mcc,44.61
2022-02-12T08:52:00,mcc,43.74
2022-02-12T08:53:00,mcc,40.97
2022-02-12T08:54:00,mcc,42.69
2022-02-12T08:55:00,mcc,44.61
2022-02-12T08:56:00,mcc,42.40
2022-02-12T08:57:00,mcc,41.81
2022-02-12T08:58:00,mcc,41.46
2022-02-12T08:59:00,mcc,39.85
2022-02-12T09:00:00,mcc,40.18
2022-02-12T09:01:00,mcc,42.33
2022-02-12T09:02:00,mcc,40.76
2022-02-12T09:03:00,mcc,42.43
2022-02-12T09:04:00,mcc,51.78
2022-02-12T09:05:00,mcc,39.98
2022-02-12T09:06:00,mcc,39.34
2022-02-12T09:07:00,mcc,38.85
2022-02-12T09:08:00,mcc,38.84
2022-02-12T09:09:00,mcc,37.32
2022-02-12T09:10:00,mcc,37.56
2022-02-12T09:11:00,mcc,38.75
2022-02-12T09:12:00,mcc,43.75
2022-02-12T09:13:00,mcc,42.04
2022-02-12T09:14:00,mcc,43.11
2022-02-12T09:15:00,mcc,43.03
2022-02-12T09:16:00,mcc,44.28
2022-02-12T09:17:00,mcc,40.97
2022-02-12T09:18:00,mcc,41.40
2022-02-12T09:19:00,mcc,40.64
2022-02-12T09:20:00,mcc,39.97
2022-02-12T09:21:00,mcc,42.47
2022-02-12T09:22:00,mcc,40.01
2022-02-12T09:23:00,mcc,40.35
2022-02-12T09:24:00,mcc,42.40
2022-02-12T09:25:00,mcc,39.82
2022-02-12T09:26:00,mcc,39.80
2022-02-12T09:27:00,mcc,42.75
2022-02-12T09:28:00,mcc,39.27
2022-02-12T09:29:00,mcc,42.22
2022-02-12T09:30:00,mcc,40.41
2022-02-12T09:31:00,mcc,40.91
2022-02-12T09:32:00,mcc,38.95
2022-02-12T09:33:00,mcc,39.76
2022-02-12T09:34:00,mcc,39.50
2022-02-12T09:35:00,mcc,43.11
2022-02-12T09:36:00,mcc,40.41
2022-02-12T09:37:00,mcc,40.91
2022-02-12T09:38:00,mcc,42.28
2022-02-12T09:39:00,mcc,43.61
2022-02-12T09:40:00,mcc,42.30
2022-02-12T09:41:00,mcc,45.05
2022-02-12T09:42:00,mcc,41.32
2022-02-12T09:43:00,mcc,40.93
2022-02-12T09:44:00,mcc,43.45
2022-02-12T09:45:00,mcc,41.80
2022-02-12T09:46:00,mcc,40.02
2022-02-12T09:47:00,mcc,39.74
2022-02-12T09:48:00,mcc,40.52
2022-02-12T09:49:00,mcc,41.09
2022-02-12T09:50:00,mcc,44.07
2022-02-12T09:51:00,mcc,43.09
2022-02-12T09:52:00,mcc,41.09
2022-02-12T09:53:00,mcc,42.27
2022-02-12T09:54:00,mcc,40.20
2022-02-12T09:55:00,mcc,41.25
2022-02-12T09:56:00,mcc,41.75
2022-02-12T09:57:00,mcc,41.97
2022-02-12T09:58:00,mcc,43.22
2022-02-12T09:59:00,mcc,51.32
2022-02-12T10:00:00,mcc,41.48
2022-02-12T10:01:00,mcc,41.21
2022-02-12T10:02:00,mcc,38.80
2022-02-12T10:03:00,mcc,38.21
2022-02-12T10:04:00,mcc,42.53
2022-02-12T10:05:00,mcc,41.83
2022-02-12T10:06:00,mcc,41.35
2022-02-12T10:07:00,mcc,44.54
2022-02-12T10:08:00,mcc,40.29
2022-02-12T10:09:00,mcc,40.57
2022-02-12T10:10:00,mcc,38.30
2022-02-12T10:11:00,mcc,37.05
2022-02-12T10:12:00,mcc,37.87
2022-02-12T10:13:00,mcc,40.34
2022-02-12T10:14:00,mcc,39.63
2022-02-12T10:15:00,mcc,41.23
2022-02-12T10:16:00,mcc,42.37
2022-02-12T10:17:00,mcc,51.80
2022-02-12T10:18:00,mcc,45.79
2022-02-12T10:19:00,mcc,43.19
2022-02-12T10:20:00,mcc,42.16
2022-02-12T10:21:00,mcc,39.81
2022-02-12T10:22:00,mcc,41.66
2022-02-12T10:23:00,mcc,43.01
2022-02-12T10:24:00,mcc,41.10
2022-02-12T10:25:00,mcc,42.36
2022-02-12T10:26:00,mcc,41.04
2022-02-12T10:27:00,mcc,41.45
2022-02-12T10:28:00,mcc,38.52
2022-02-12T10:29:00,mcc,40.25
2022-02-12T10:30:00,mcc,42.21
2022-02-12T10:31:00,mcc,40.60
2022-02-12T10:32:00,mcc,41.13
2022-02-12T10:33:00,mcc,43.13
2022-02-12T10:34:00,mcc,42.82
2022-02-12T10:35:00,mcc,41.09
2022-02-12T10:36:00,mcc,40.40
2022-02-12T10:37:00,mcc,38.48
2022-02-12T10:38:00,mcc,38.32
2022-02-12T10:39:00,mcc,37.92
2022-02-12T10:40:00,mcc,37.05
2022-02-12T10:41:00,mcc,40.09
2022-02-12T10:42:00,mcc,37.86
2022-02-12T10:43:00,mcc,37.59
2022-02-12T10:44:00,mcc,39.98
2022-02-12T10:45:00,mcc,39.65
2022-02-12T10:46:00,mcc,38.19
2022-02-12T10:47:00,mcc,39.49
2022-02-12T10:48:00,mcc,41.30
2022-02-12T10:49:00,mcc,41.71
2022-02-12T10:50:00,mcc,43.80
2022-02-12T10:51:00,mcc,38.88
2022-02-12T10:52:00,mcc,40.97
2022-02-12T10:53:00,mcc,42.36
2022-02-12T10:54:00,mcc,60.23
2022-02-12T10:55:00,mcc,50.50
2022-02-12T10:56:00,mcc,52.80
2022-02-12T10:57:00,mcc,40.97
2022-02-12T10:58:00,mcc,44.48
2022-02-12T10:59:00,mcc,47.16
2022-02-12T11:00:00,mcc,42.53
2022-02-12T11:01:00,mcc,42.70
2022-02-12T11:02:00,mcc,42.24
2022-02-12T11:03:00,mcc,42.08
2022-02-12T11:04:00,mcc,42.42
2022-02-12T11:05:00,mcc,42.08
2022-02-12T11:06:00,mcc,41.29
2022-02-12T11:07:00,mcc,44.36
2022-02-12T11:08:00,mcc,41.73
2022-02-12T11:09:00,mcc,43.15
2022-02-12T11:10:00,mcc,45.29
2022-02-12T11:11:00,mcc,52.25
2022-02-12T11:12:00,mcc,40.82
2022-02-12T11:13:00,mcc,42.81
2022-02-12T11:14:00,mcc,40.72
2022-02-12T11:15:00,mcc,40.05
2022-02-12T11:16:00,mcc,42.39
2022-02-12T11:17:00,mcc,42.85
2022-02-12T11:18:00,mcc,43.24
2022-02-12T11:19:00,mcc,45.59
2022-02-12T11:20:00,mcc,43.33
2022-02-12T11:21:00,mcc,43.82
2022-02-12T11:22:00,mcc,46.21
2022-02-12T11:23:00,mcc,43.08
2022-02-12T11:24:00,mcc,43.66
2022-02-12T11:25:00,mcc,43.40
2022-02-12T11:26:00,mcc,42.53
2022-02-12T11:27:00,mcc,41.09
2022-02-12T11:28:00,mcc,39.12
2022-02-12T11:29:00,mcc,39.62
2022-02-12T11:30:00,mcc,49.38
2022-02-12T11:31:00,mcc,40.79
2022-02-12T11:32:00,mcc,41.52
2022-02-12T11:33:00,mcc,46.56
2022-02-12T11:34:00,mcc,41.32
2022-02-12T11:35:00,mcc,43.60
2022-02-12T11:36:00,mcc,50.89
2022-02-12T11:37:00,mcc,49.74
2022-02-12T11:38:00,mcc,51.00
2022-02-12T11:39:00,mcc,51.36
2022-02-12T11:40:00,mcc,48.71
2022-02-12T11:41:00,mcc,41.53
2022-02-12T11:42:00,mcc,44.99
2022-02-12T11:43:00,mcc,41.20
2022-02-12T11:44:00,mcc,41.31
2022-02-12T11:45:00,mcc,41.85
2022-02-12T11:46:00,mcc,40.88
2022-02-12T11:47:00,mcc,41.96
2022-02-12T11:48:00,mcc,42.75
2022-02-12T11:49:00,mcc,49.91
2022-02-12T11:50:00,mcc,42.81
2022-02-12T11:51:00,mcc,39.72
2022-02-12T11:52:00,mcc,39.08
2022-02-12T11:53:00,mcc,40.66
2022-02-12T11:54:00,mcc,49.27
2022-02-12T11:55:00,mcc,40.83
2022-02-12T11:56:00,mcc,43.20
2022-02-12T11:57:00,mcc,41.18
2022-02-12T11:59:00,mcc,41.07
2022-02-12T12:00:00,mcc,40.00
2022-02-12T12:01:00,mcc,40.52
2022-02-12T12:02:00,mcc,41.39
2022-02-12T12:03:00,mcc,40.14
2022-02-12T12:04:00,mcc,42.73
2022-02-12T12:05:00,mcc,41.21
2022-02-12T12:06:00,mcc,42.33
2022-02-12T12:07:00,mcc,52.51
2022-02-12T12:08:00,mcc,42.29
2022-02-12T12:09:00,mcc,43.99
2022-02-12T12:10:00,mcc,45.71
2022-02-12T12:11:00,mcc,42.81
2022-02-12T12:12:00,mcc,43.54
2022-02-12T12:13:00,mcc,44.53
2022-02-12T12:14:00,mcc,41.68
2022-02-12T12:15:00,mcc,42.61
2022-02-12T12:16:00,mcc,41.99
2022-02-12T12:17:00,mcc,38.42
2022-02-12T12:18:00,mcc,40.30
2022-02-12T12:19:00,mcc,41.53
2022-02-12T12:20:00,mcc,38.91
2022-02-12T12:21:00,mcc,39.18
2022-02-12T12:22:00,mcc,37.02
2022-02-12T12:23:00,mcc,37.17
2022-02-12T12:24:00,mcc,38.49
2022-02-12T12:25:00,mcc,39.66
2022-02-12T12:26:00,mcc,38.51
2022-02-12T12:27:00,mcc,41.61
2022-02-12T12:28:00,mcc,39.49
2022-02-12T12:29:00,mcc,39.57
2022-02-12T12:30:00,mcc,43.81
2022-02-12T12:31:00,mcc,41.82
2022-02-12T12:32:00,mcc,41.84
2022-02-12T12:33:00,mcc,42.61
2022-02-12T12:34:00,mcc,41.98
2022-02-12T12:35:00,mcc,41.95
2022-02-12T12:36:00,mcc,38.39
2022-02-12T12:37:00,mcc,35.22
2022-02-12T12:38:00,mcc,38.71
2022-02-12T12:39:00,mcc,36.03
2022-02-12T12:40:00,mcc,37.49
2022-02-12T12:41:00,mcc,38.00
2022-02-12T12:42:00,mcc,39.05
2022-02-12T12:43:00,mcc,45.86
2022-02-12T12:44:00,mcc,39.64
2022-02-12T12:45:00,mcc,38.26
2022-02-12T12:46:00,mcc,38.44
2022-02-12T12:47:00,mcc,40.30
2022-02-12T12:48:00,mcc,40.48
2022-02-12T12:49:00,mcc,41.01
2022-02-12T12:50:00,mcc,43.32
2022-02-12T12:51:00,mcc,37.08
2022-02-12T12:52:00,mcc,39.27
2022-02-12T12:53:00,mcc,37.43
2022-02-12T12:54:00,mcc,38.10
2022-02-12T12:55:00,mcc,40.38
2022-02-12T12:56:00,mcc,42.32
2022-02-12T12:57:00,mcc,41.03
2022-02-12T12:58:00,mcc,43.02
2022-02-12T12:59:00,mcc,39.52
2022-02-12T13:00:00,mcc,39.00
2022-02-12T13:01:00,mcc,47.53
2022-02-12T13:02:00,mcc,36.80
2022-02-12T13:03:00,mcc,39.24
2022-02-12T13:04:00,mcc,40.53
2022-02-12T13:05:00,mcc,37.08
2022-02-12T13:06:00,mcc,37.98
2022-02-12T13:07:00,mcc,37.15
2022-02-12T13:08:00,mcc,36.70
2022-02-12T13:09:00,mcc,36.49
2022-02-12T13:10:00,mcc,36.77
2022-02-12T13:11:00,mcc,36.84
2022-02-12T13:12:00,mcc,38.47
2022-02-12T13:13:00,mcc,35.93
2022-02-12T13:14:00,mcc,39.63
2022-02-12T13:15:00,mcc,40.52
2022-02-12T13:16:00,mcc,38.20
2022-02-12T13:17:00,mcc,37.97
2022-02-12T13:18:00,mcc,39.95
2022-02-12T13:19:00,mcc,39.28